{"data":{"norad_id":54826,"intl_designator":"2022-177G","name":"STARLINK-5107","alt_names":[],"object_type":"PAYLOAD","status":"ACTIVE","operator":null,"country":"US","launch_date":"2022-12-28","launch_site_code":"AFETR","launch_vehicle":null,"mission":null,"orbit_class":"UNKNOWN","rcs_meters":null,"size_class":null,"mass_kg":null,"dimensions":null,"purposes":["comms"],"wikipedia_slug":null,"has_3d_model":false,"image_url":null,"decayed_at":null,"tle_current":{"epoch":"2026-09-20T22:34:07.019328Z","epoch_age_seconds":55298,"freshness":"FRESH","line1":"1 54826U 22177G   26263.94035902 -.00002453  00000+0 -79588-4 0  9991","line2":"2 54826  43.0011 113.4449 0000759 255.1866 104.8902 15.27609477206781","mean_motion":15.27609477,"eccentricity":7.59e-5,"inclination_deg":43.0011,"raan_deg":113.4449,"arg_perigee_deg":255.1866,"mean_anomaly_deg":104.8902,"bstar":-7.9588e-5,"rev_number":20678,"period_min":94.264929727194,"perigee_km":482.44007539117,"apogee_km":483.48159004217,"semimajor_km":6861.0978327167,"source":"CELESTRAK","updated_at":"2026-09-21T09:00:33.133524Z"}}}